Notices

What's New in latest Release from April 7th, 2021:

- Updated Glossary, including Speed of Maximum Gust, and Total Hourly Precipitation

- Updated national and regional climate services offices contacts and prices information

- Addition of station inventory lists for 1981-2010, 1971-2000, and 1961-1990 Normals.

If you haven't already, please take our survey and provide feedback about our website: https://eccc.sondage-survey.ca/f/LanguageSelection.aspx?s=442ca660-fcf1-47c0-95a9-59707d6fd709

Hourly Data Report for November 08, 2018

CARBERRY CS
MANITOBA
Current Station Operator: ECCC - MSC

49°54'20.900" N
99°21'26.800" W
383.50 m
5010547
71170
WZE

Download Data

Hourly Data (November 2018)
Hourly Data Report for November 8, 2018
TIME
LST
Temp Definition
°C
Dew Point Definition
°C
Rel Hum Definition
%
Precip. Amount Definition
mm

Wind Dir Definition
10's deg

Wind Spd Definition
km/h
Visibility Definition
km
Stn Press Definition
kPa
Hmdx Definition


Wind Chill Definition


Weather Definition


00:00 -9.1 -12.2 79 0.0 26 15   97.98   -16 LegendNANA
01:00 -9.3 -12.4 78 0.0 26 14   98.01   -16 LegendNANA
02:00 -9.6 -12.2 82 0.0 26 13   97.99   -16 LegendNANA
03:00 -9.9 -12.3 82 0.0 26 13   97.99   -16 LegendNANA
04:00 -10.4 -13.0 81 0.0 27 10   97.98   -16 LegendNANA
05:00 -10.4 -13.3 79 0.0 28 12   97.98   -16 LegendNANA
06:00 -10.7 -13.4 81 0.0 26 10   97.97   -16 LegendNANA
07:00 -11.0 -13.6 82 0.0 26 12   97.97   -17 LegendNANA
08:00 -11.3 -13.8 82 0.0 28 10   97.98   -17 LegendNANA
09:00 -11.1 -13.7 81 0.0 27 12   98.00   -17 LegendNANA
10:00 -10.4 -13.2 80 0.0 28 10   98.00   -16 LegendNANA
11:00 -9.8 -13.0 78 0.0 29 12   98.02   -16 LegendNANA
12:00 -8.9 -12.8 73 0.0 31 9   98.02   -14 LegendNANA
13:00 -8.7 -12.7 73 0.0 32 11   97.97   -14 LegendNANA
14:00 -8.5 -12.1 75 0.0 35 10   97.96   -13 LegendNANA
15:00 -8.4 -11.4 79 0.0 36 15   97.98   -15 LegendNANA
16:00 -8.8 -11.3 82 0.0 35 17   98.01   -16 LegendNANA
17:00 -9.8 -12.5 81 0.0 36 18   98.05   -17 LegendNANA
18:00 -10.3 -13.3 78 0.0 36 16   98.14   -17 LegendNANA
19:00 -10.6 -13.7 78 0.0 35 22   98.22   -19 LegendNANA
20:00 -10.9 -14.4 76 0.0 36 22   98.29   -19 LegendNANA
21:00 -12.0 -15.3 77 0.0 36 19   98.33   -20 LegendNANA
22:00 -11.6 -15.4 74 0.0 1 20   98.40   -20 LegendNANA
23:00 -13.0 -16.3 76 0.0 36 15   98.48   -20 LegendNANA

Notes on Data Quality.

Legend

  • E = Estimated
  • M = Missing
  • NA = Not Available*
  • [empty] = Indicates an unobserved value
Date modified: